KE0PRS Weather Reports


time (UTC)temp
F
wind
direction
speed
knots
gust
knots
rain 1hr
in
rain 24hr
in
rain mn
in
humidity
%
barometer
mb
20260505041746 67 6 1.7 8.7 0.00 0.00 0.00 46 1003.9
20260505041243 67 56 3.5 7.8 0.00 0.00 0.00 46 1003.7
20260505040740 68 125 3.5 7.0 0.00 0.00 0.00 46 1003.9
20260505040238 68 62 3.5 9.6 0.00 0.00 0.00 47 1003.9
20260505035735 68 81 6.1 12.2 0.00 0.00 0.00 47 1003.5
20260505035230 68 117 1.7 12.2 0.00 0.00 0.00 48 1003.4
20260505034728 68 23 3.5 11.3 0.00 0.00 0.00 48 1003.3
20260505034224 68 144 5.2 8.7 0.00 0.00 0.00 49 1003.4
20260505033721 68 332 1.7 8.7 0.00 0.00 0.00 47 1003.3
20260505033219 68 27 1.7 3.5 0.00 0.00 0.00 47 1002.9
20260505032717 68 134 0.0 6.1 0.00 0.00 0.00 46 1002.9
20260505032212 68 35 1.7 2.6 0.00 0.00 0.00 45 1003.0
20260505031710 68 143 0.0 0.9 0.00 0.00 0.00 45 1002.8
20260505031206 68 112 0.9 6.1 0.00 0.00 0.00 45 1003.1
20260505030703 68 124 0.9 5.2 0.00 0.00 0.00 45 1003.2
20260505030159 68 144 0.0 0.9 0.00 0.00 0.00 45 1002.7
20260505025655 68 134 0.9 1.7 0.00 0.00 0.00 45 1002.8
20260505025153 68 141 0.0 0.0 0.00 0.00 0.00 46 1002.7
20260505024650 68 125 0.0 0.0 0.00 0.00 0.00 46 1002.5
20260505024148 68 147 0.0 0.0 0.00 0.00 0.00 46 1002.4
20260505023645 68 144 0.0 0.0 0.00 0.00 0.00 46 1002.3
20260505023143 68 155 0.0 0.0 0.00 0.00 0.00 46 1002.5
20260505022640 68 146 0.0 0.0 0.00 0.00 0.00 46 1002.2
20260505022137 68 146 0.0 0.0 0.00 0.00 0.00 46 1002.3
20260505021633 68 146 0.0 0.0 0.00 0.00 0.00 46 1002.0
20260505021130 68 146 0.0 0.0 0.00 0.00 0.00 47 1002.3
20260505020626 68 144 0.0 1.7 0.00 0.00 0.00 47 1002.0
20260505020122 68 149 0.0 0.9 0.00 0.00 0.00 47 1002.2
20260505015619 69 149 0.0 0.0 0.00 0.00 0.00 47 1002.0
20260505015116 69 151 0.0 0.0 0.00 0.00 0.00 47 1001.8
20260505014613 69 146 0.0 0.0 0.00 0.00 0.00 47 1001.9
20260505014110 69 142 0.9 0.9 0.00 0.00 0.00 47 1001.8
20260505013607 70 153 0.0 0.0 0.00 0.00 0.00 46 1001.7
20260505013104 71 154 0.0 0.0 0.00 0.00 0.00 46 1001.6
20260505012602 71 149 0.0 0.0 0.00 0.00 0.00 46 1001.5
20260505012059 72 133 0.9 1.7 0.00 0.00 0.00 45 1002.0
20260505011554 72 141 0.0 1.7 0.00 0.00 0.00 45 1001.8
20260505011052 73 126 0.0 0.9 0.00 0.00 0.00 45 1001.7
20260505010547 73 169 0.0 0.9 0.00 0.00 0.00 44 1001.6
20260505010044 73 165 0.0 0.9 0.00 0.00 0.00 44 1001.8
20260505005540 73 147 1.7 2.6 0.00 0.00 0.00 43 1001.4
20260505005038 74 143 2.6 6.1 0.00 0.00 0.00 43 1001.6
20260505004535 75 199 4.3 7.0 0.00 0.00 0.00 41 1001.7
20260505004032 75 196 3.5 7.0 0.00 0.00 0.00 41 1001.9
20260505003529 75 176 3.5 12.2 0.00 0.00 0.00 39 1002.0
20260505003026 76 165 8.7 13.0 0.00 0.00 0.00 38 1001.9
20260505002521 76 149 5.2 11.3 0.00 0.00 0.00 38 1002.2
20260505002020 78 220 6.1 7.8 0.00 0.00 0.00 35 1002.0
20260505001517 80 224 7.8 13.0 0.00 0.00 0.00 31 1001.9
20260505001014 81 223 3.5 5.2 0.00 0.00 0.00 28 1001.8
20260505000511 82 173 1.7 2.6 0.00 0.00 0.00 27 1001.8
20260505000009 82 134 2.6 7.0 0.00 0.00 0.00 25 1001.7
20260504235506 81 171 3.5 5.2 0.00 0.00 0.00 26 1001.6
20260504235002 81 142 0.9 1.7 0.00 0.00 0.00 27 1001.8
20260504234459 80 153 2.6 5.2 0.00 0.00 0.00 26 1001.7
20260504233956 80 181 5.2 11.3 0.00 0.00 0.00 29 1001.6
20260504233451 80 126 4.3 7.0 0.00 0.00 0.00 30 1001.4
20260504232948 80 186 5.2 6.1 0.00 0.00 0.00 30 1001.4
20260504232445 80 173 6.1 7.8 0.00 0.00 0.00 29 1001.5
20260504231943 81 156 4.3 7.0 0.00 0.00 0.00 29 1001.8
20260504231439 81 131 7.8 8.7 0.00 0.00 0.00 27 1001.7
20260504230935 81 129 9.6 12.2 0.00 0.00 0.00 27 1001.5
20260504230432 82 184 2.6 12.2 0.00 0.00 0.00 28 1001.3
20260504225931 83 135 2.6 9.6 0.00 0.00 0.00 29 1001.6
20260504225427 85 148 7.0 9.6 0.00 0.00 0.00 24 1001.2
20260504224925 85 117 1.7 6.1 0.00 0.00 0.00 22 1001.4
20260504224421 85 123 2.6 7.0 0.00 0.00 0.00 23 1001.5
20260504223919 86 122 2.6 5.2 0.00 0.00 0.00 23 1001.4
20260504223414 87 143 3.5 7.0 0.00 0.00 0.00 22 1001.6
20260504222910 88 152 3.5 6.1 0.00 0.00 0.00 22 1001.3
20260504222408 88 162 0.0 0.9 0.00 0.00 0.00 19 1001.4
20260504221906 88 156 0.9 6.1 0.00 0.00 0.00 19 1001.3
20260504221402 88 168 1.7 1.7 0.00 0.00 0.00 19 1001.4
20260504220859 88 118 0.9 5.2 0.00 0.00 0.00 19 1001.5
20260504220356 88 120 1.7 7.0 0.00 0.00 0.00 19 1001.5
20260504215853 88 90 1.7 3.5 0.00 0.00 0.00 19 1001.5
20260504215349 88 129 2.6 7.0 0.00 0.00 0.00 19 1001.5
20260504214846 88 39 1.7 6.1 0.00 0.00 0.00 18 1001.5
20260504214343 88 175 0.9 7.0 0.00 0.00 0.00 17 1001.7
20260504213839 88 120 2.6 3.5 0.00 0.00 0.00 17 1001.5
20260504213335 88 162 2.6 5.2 0.00 0.00 0.00 17 1001.4
20260504212833 88 145 2.6 7.0 0.00 0.00 0.00 16 1001.7
20260504212329 88 177 0.9 7.8 0.00 0.00 0.00 16 1001.7
20260504211827 88 206 4.3 7.8 0.00 0.00 0.00 17 1001.7
20260504211328 89 118 0.9 2.6 0.00 0.00 0.00 17 1001.6
20260504210826 88 105 0.9 6.1 0.00 0.00 0.00 16 1002.0
20260504210322 87 159 3.5 6.1 0.00 0.00 0.00 16 1002.2
20260504205820 88 122 0.9 5.2 0.00 0.00 0.00 18 1002.4
20260504205317 88 262 0.9 2.6 0.00 0.00 0.00 17 1002.3
20260504204815 88 137 1.7 6.1 0.00 0.00 0.00 18 1002.4
20260504204314 87 94 0.9 5.2 0.00 0.00 0.00 18 1002.6
20260504203813 87 168 6.1 7.0 0.00 0.00 0.00 18 1002.4
20260504203309 87 127 5.2 8.7 0.00 0.00 0.00 18 1002.6
20260504202804 87 51 3.5 5.2 0.00 0.00 0.00 18 1002.8
20260504202302 87 132 2.6 7.8 0.00 0.00 0.00 18 1002.9
20260504201758 88 124 6.1 7.8 0.00 0.00 0.00 18 1002.7
20260504201256 88 150 0.0 2.6 0.00 0.00 0.00 18 1003.0
20260504200753 88 153 0.9 1.7 0.00 0.00 0.00 18 1003.2
20260504200249 88 116 3.5 7.8 0.00 0.00 0.00 18 1002.9
20260504195746 87 234 1.7 3.5 0.00 0.00 0.00 18 1003.2
20260504195241 88 140 2.6 12.2 0.00 0.00 0.00 18 1003.2
20260504194739 89 111 0.9 2.6 0.00 0.00 0.00 18 1003.4
20260504194235 88 148 1.7 2.6 0.00 0.00 0.00 19 1003.1
20260504193731 88 165 0.0 7.8 0.00 0.00 0.00 19 1003.3
20260504193229 88 206 3.5 7.8 0.00 0.00 0.00 18 1003.2
20260504192727 87 172 0.9 2.6 0.00 0.00 0.00 19 1003.3
20260504192225 87 100 1.7 6.1 0.00 0.00 0.00 19 1003.4
20260504191724 88 126 2.6 7.8 0.00 0.00 0.00 18 1003.6
20260504191220 88 123 0.9 2.6 0.00 0.00 0.00 18 1003.9
20260504190715 88 19 0.9 5.2 0.00 0.00 0.00 19 1003.5
20260504190212 87 135 0.9 2.6 0.00 0.00 0.00 19 1003.7
20260504185708 87 78 1.7 7.8 0.00 0.00 0.00 19 1004.0
20260504185205 87 109 1.7 3.5 0.00 0.00 0.00 19 1004.0
20260504184701 87 138 2.6 3.5 0.00 0.00 0.00 19 1004.1
20260504184156 87 108 0.9 3.5 0.00 0.00 0.00 18 1004.2
20260504183653 87 138 0.9 7.8 0.00 0.00 0.00 19 1004.1
20260504183150 87 149 1.7 6.1 0.00 0.00 0.00 18 1004.2
20260504182648 86 92 1.7 7.8 0.00 0.00 0.00 19 1004.3
20260504182145 86 113 1.7 2.6 0.00 0.00 0.00 18 1004.4
20260504181643 85 135 0.0 6.1 0.00 0.00 0.00 21 1004.4
20260504181140 85 141 1.7 7.0 0.00 0.00 0.00 20 1004.5
20260504180640 85 21 1.7 7.8 0.00 0.00 0.00 20 1004.5
20260504180138 84 80 3.5 7.0 0.00 0.00 0.00 20 1004.6
20260504175634 84 19 5.2 9.6 0.00 0.00 0.00 21 1004.4
20260504175131 84 120 3.5 8.7 0.00 0.00 0.00 21 1004.4
20260504174630 84 115 2.6 5.2 0.00 0.00 0.00 21 1004.7
20260504174125 84 130 0.9 6.1 0.00 0.00 0.00 22 1004.9
20260504173623 83 111 0.9 5.2 0.00 0.00 0.00 24 1004.8
20260504173120 83 51 1.7 3.5 0.00 0.00 0.00 23 1004.8
20260504172617 83 127 4.3 7.8 0.00 0.00 0.00 24 1005.0
20260504172113 83 144 4.3 8.7 0.00 0.00 0.00 22 1004.9
20260504171609 82 122 0.9 7.8 0.00 0.00 0.00 23 1005.0
20260504171107 82 60 3.5 7.0 0.00 0.00 0.00 24 1005.2
20260504170602 83 83 3.5 6.1 0.00 0.00 0.00 23 1004.9
20260504150946 73 203 1.7 5.2 0.00 0.00 0.00 34 1004.7
20260504150443 72 251 1.7 3.5 0.00 0.00 0.00 37 1004.7
20260504140909 66 198 0.9 5.2 0.00 0.00 0.00 42 1004.7
20260504140406 65 189 1.7 2.6 0.00 0.00 0.00 44 1004.7
20260504130331 55 188 0.9 1.7 0.00 0.00 0.00 58 1004.9
20260504120254 52 197 1.7 1.7 0.00 0.00 0.00 63 1004.7
20260504110218 58 204 2.6 5.2 0.00 0.00 0.00 52 1004.5
20260504100142 59 216 3.5 3.5 0.00 0.00 0.00 49 1004.9
20260504090104 60 201 1.7 5.2 0.00 0.00 0.00 49 1005.5
20260504081535 62 191 1.7 5.2 0.00 0.00 0.00 45 1005.5
20260504081030 63 183 3.5 7.8 0.00 0.00 0.00 44 1005.5
20260504080527 63 166 1.7 5.2 0.00 0.00 0.00 43 1005.6
20260504050341 68 166 3.5 7.8 0.00 0.00 0.00 36 1006.2
20260504045838 68 243 3.5 9.6 0.00 0.00 0.00 35 1006.5
20260504045338 67 172 5.2 9.6 0.00 0.00 0.00 35 1006.4
20260504044835 67 207 7.0 9.6 0.00 0.00 0.00 35 1006.4
20260504044332 67 200 5.2 8.7 0.00 0.00 0.00 35 1006.4
20260504043830 67 128 4.3 7.8 0.00 0.00 0.00 35 1006.6
20260504043326 67 215 4.3 11.3 0.00 0.00 0.00 35 1006.6
20260504042824 68 219 4.3 7.0 0.00 0.00 0.00 35 1006.5